Location: ????????
(37.9452°N, 23.1472°E)
Time: 10:44:43
(UTC+00:00)

Daily predictions for brighter satellites

Satellite Brightness Start Highest point End
(mag) Time Altitude Azimuth Time Altitude Azimuth Time Altitude Azimuth
Milstar 3 4.2 17:15:39 10° SW 17:23:10 41° SSE 17:35:55 10° E
Cosmos 2366 rocket 4.2 17:21:26 10° N 17:27:39 53° E 17:33:48 10° SSE
ADEOS Rocket 3.0 17:22:23 10° S 17:27:54 76° WSW 17:33:26 10° NNW
Resurs 1-3 3.9 17:28:22 10° SSE 17:32:33 49° ENE 17:36:46 10° N
Cosmos 1455 2.0 17:29:52 10° S 17:33:25 89° W 17:37:00 10° N
CZ-4B R/B 3.9 17:28:37 10° SE 17:33:45 38° ENE 17:38:51 10° N
Cosmos 1892 2.9 17:30:41 10° NNW 17:34:13 70° W 17:37:43 10° S
YAOGAN 1 3.2 17:30:02 10° S 17:34:15 59° W 17:38:31 10° NNW
Meteor PRIRODA 4.3 17:34:08 10° S 17:37:28 54° W 17:40:51 10° NNW
Cosmos 1953 3.3 17:35:55 10° SSW 17:39:37 50° W 17:43:21 10° N
Cosmos 1975 Rocket 3.5 17:37:12 10° N 17:41:16 39° E 17:45:17 10° SSE
Cosmos 2218 Rocket 4.1 17:35:30 10° N 17:41:52 66° E 17:48:08 10° SSE
USA 267 4.0 17:36:47 10° NE 17:43:10 57° NW 17:49:32 10° WSW
SPOT 1/Viking Rocket 3.8 17:38:29 10° SSE 17:43:32 52° ENE 17:48:35 10° N
Cosmos 1833 4.2 17:38:14 10° NNW 17:43:51 66° ENE 17:49:24 10° SSE
ADEOS 4.3 17:42:04 10° S 17:47:11 58° W 17:52:20 10° NNW
USA 186 2.5 17:46:26 10° SE 17:49:11 31° ENE 17:51:55 10° N
Okean O Rocket 2.6 17:47:12 10° SE 17:50:56 29° ENE 17:54:43 10° N
Atlas Centaur 2 3.2 17:47:05 10° SW 17:51:44 25° S 17:55:03 13° ESE
Cosmos 1825 3.3 17:50:51 10° NNW 17:54:07 42° W 17:57:23 10° SSW
Hubble Space Telescope 2.8 17:52:01 10° SW 17:54:22 15° SSW 17:56:43 10° SSE
SL-27 R/B 3.1 17:51:56 10° N 17:54:25 26° ENE 17:56:01 16° ESE
Cosmos 1782 Rocket 4.0 17:50:07 10° SSW 17:54:27 67° W 17:58:51 10° N
CZ-4 R/B 1.2 17:53:40 10° SSE 17:57:36 87° E 18:01:29 10° NNW
NOSS 3-1 (A) 2.8 17:55:50 10° SSW 18:00:32 76° ESE 18:06:02 10° NE
Resurs 01 Rocket 2.0 18:01:31 11° SE 18:05:28 44° ENE 18:09:40 10° N
CZ-4B R/B 4.1 18:03:29 10° S 18:06:57 38° W 18:10:19 10° NNW
SJ 16-02 2.3 18:04:32 10° NNW 18:08:41 47° WSW 18:12:48 10° S
USA 229 DEB 4.1 18:04:17 10° S 18:09:25 31° ESE 18:14:53 10° NE
USA 229 4.1 18:04:23 10° S 18:09:31 30° ESE 18:14:58 10° NE
DELTA 2 DEB (DPAF) 3.9 18:08:06 10° NNE 18:12:21 83° E 18:16:35 10° SSW
Cosmos 1300 Rocket 4.5 18:08:45 10° SSW 18:13:00 52° W 18:17:18 10° N
USA 234 3.6 18:11:15 16° ESE 18:16:19 54° NE 18:22:38 10° NW
USA 281 3.8 18:12:10 17° ESE 18:16:42 40° ENE 18:22:43 10° N
Cosmos 2151 Rocket 3.9 18:18:26 12° SSE 18:22:14 44° E 18:26:27 10° NNE
Tiangong -2.3 18:20:46 10° WSW 18:23:52 86° SSE 18:25:14 30° ENE
OAO 3 Rocket 4.4 18:23:17 10° W 18:27:30 30° SSW 18:29:52 20° SSE
CSL-04 Debris 4.1 18:22:32 10° SSE 18:27:57 88° ENE 18:33:27 10° NNW
Cosmos 2227 Rocket 4.3 18:27:07 10° NNE 18:28:37 11° NE 18:30:06 10° ENE
ATLAS 3B R/B 3.3 18:27:23 10° SW 18:34:17 63° NW 18:41:45 10° NNE
Cosmos 1697 Rocket 4.3 18:37:21 16° ENE 18:37:21 16° ENE 18:39:19 10° NE
CSL-04 Rocket 3.7 18:31:12 12° SSE 18:36:26 85° WSW 18:41:56 10° NNW
Cosmos 371 Rocket 3.7 18:36:39 10° N 18:41:14 44° ENE 18:42:31 35° ESE
COSMOS 2455 4.3 18:38:15 10° N 18:42:48 22° NE 18:44:51 18° ENE
Okean 2 Rocket 3.0 18:40:35 15° S 18:44:16 76° E 18:48:46 10° N
Cosmos 304 Rocket 4.3 18:40:47 10° N 18:45:14 38° ENE 18:46:06 35° E
SPOT 5 3.6 18:46:55 34° ESE 18:48:18 40° ENE 18:53:12 10° N
CZ-4C R/B 4.4 18:47:59 10° N 18:53:40 24° NE 18:57:31 17° ENE
Cosmos 2297 Rocket 3.0 18:52:43 10° N 18:57:48 33° ENE 18:58:46 31° E
Cosmos 1656 3.5 18:53:01 10° SSW 18:58:37 85° ESE 19:04:10 10° NNE
Terra 3.0 19:01:25 26° ENE 19:01:25 26° ENE 19:04:57 10° NNE
BlueWalker 3 3.7 18:57:55 10° W 19:01:21 31° NNW 19:04:49 10° NNE
Cosmos 1503 Rocket 3.9 18:56:17 10° NNW 19:01:41 78° ENE 19:03:17 46° SSE
Cosmos 1354 Rocket 4.1 18:59:18 10° N 19:04:34 61° ENE 19:05:35 51° ESE
Iridium 4 Rocket 3.6 19:04:24 43° SSE 19:06:08 67° E 19:11:51 10° N
Cosmos 1241 Rocket 4.5 19:00:55 10° NNW 19:07:14 83° WSW 19:09:45 40° SSE
Okean 1 Rocket 2.9 19:06:57 58° S 19:07:47 83° E 19:12:16 10° N
Sich 1 Rocket 4.2 19:04:11 14° SSW 19:07:52 56° W 19:12:14 10° N
USA 245 4.5 19:09:43 42° ENE 19:09:43 42° ENE 19:14:06 10° N
Okean-O 2.8 19:11:09 49° SSW 19:12:11 68° WSW 19:16:35 10° NNW
Ariane Rocket 3.8 19:16:23 35° ENE 19:16:23 35° ENE 19:20:32 10° N
Cosmos 1763 Rocket 3.6 19:17:54 53° ENE 19:17:54 53° ENE 19:22:12 10° NNE
Cosmos 1932 4.4 19:13:38 10° NNW 19:19:52 82° WSW 19:21:31 51° SSE
Cosmos 44 3.8 19:18:20 10° SW 19:23:41 68° WNW 19:29:02 10° NNE
Cosmos 2263 Rocket 4.4 19:22:27 10° NNE 19:24:03 11° NE 19:24:25 11° NE
Okean O Rocket 3.8 19:24:20 12° SW 19:27:11 22° W 19:30:35 10° NW
Genesis I 4.3 19:24:36 10° NNW 19:26:55 37° NNW 19:26:55 37° NNW
Cosmos 1605 Rocket 3.9 19:27:20 10° N 19:33:44 73° E 19:34:29 66° SE
Cosmos 540 Rocket 4.4 19:39:04 36° NE 19:39:04 36° NE 19:42:10 10° NNE
Atlas Centaur 2 3.6 19:35:26 10° WSW 19:37:20 19° SW 19:37:20 19° SW
Resurs 01 Rocket 4.3 19:39:37 10° SW 19:42:06 15° W 19:44:36 10° WNW
IRS-P2 Rocket 4.5 19:42:23 85° WNW 19:42:23 85° WNW 19:47:37 10° NNW
IRS-1C Rocket 4.3 19:42:38 58° SW 19:43:10 62° WSW 19:48:25 10° NNW
ERS-1 Rocket 3.2 19:51:26 67° NW 19:51:26 67° NW 19:55:50 10° NNW
SPOT 3 Rocket 4.0 19:55:09 56° N 19:55:09 56° N 19:59:20 10° N
CENTAUR R/B 4.3 19:47:45 10° NNW 19:55:09 33° NE 19:57:39 29° ENE
USA 234 3.9 19:58:35 40° SW 19:59:22 41° SW 20:05:29 10° WNW
USA 281 4.3 19:59:02 30° SW 20:01:07 37° WSW 20:07:08 10° NW
Cosmos 1727 Rocket 4.0 20:04:27 70° NNE 20:04:27 70° NNE 20:09:59 10° N
Cosmos 1980 Rocket 3.9 20:13:32 22° NE 20:13:32 22° NE 20:15:32 10° NNE
ATLAS CENTAUR R/B 4.0 20:09:14 10° N 20:09:58 14° N 20:09:58 14° N
Cosmos 2227 Rocket 2.8 20:07:58 10° NNW 20:12:21 53° N 20:12:21 53° N
Cosmos 1697 Rocket 3.3 20:18:57 52° WNW 20:18:57 52° WNW 20:24:24 10° NNE
COSMOS 2455 3.4 20:23:14 10° NNW 20:27:59 53° WNW 20:27:59 53° WNW
Terra 3.8 20:40:08 24° WNW 20:40:08 24° WNW 20:42:38 10° NW
Cosmos 2297 Rocket 3.7 20:36:48 10° NW 20:40:35 29° W 20:40:35 29° W
CZ-4C R/B 3.0 20:35:24 10° NNW 20:42:37 82° N 20:42:37 82° N
Cosmos 2263 Rocket 3.8 21:03:19 10° NNW 21:06:06 30° NNW 21:06:06 30° NNW
NOSS 3-2 (A) 4.4 21:13:25 10° NNW 21:19:59 59° NNE 21:19:59 59° NNE
SL-16 R/B 4.5 21:41:08 17° NNE 21:41:08 17° NNE 21:42:25 10° NNE
CENTAUR R/B 3.6 21:37:59 10° NW 21:44:48 59° WNW 21:44:48 59° WNW
Cosmos 1980 Rocket 4.4 21:55:14 19° NW 21:55:14 19° NW 21:58:23 10° N
Cosmos 2360 Rocket 4.3 22:51:06 23° N 22:51:06 23° N 22:53:08 10° NNE
Cosmos 2333 Rocket 4.2 23:03:47 24° N 23:03:47 24° N 23:06:00 10° NNE
Cosmos 2322 Rocket 4.3 23:03:59 22° N 23:03:59 22° N 23:06:11 10° N
Cosmos 2219 Rocket 4.2 23:05:42 23° NNE 23:05:42 23° NNE 23:07:41 10° NNE
Lacrosse 5 4.5 23:05:57 17° N 23:05:57 17° N 23:07:23 10° NNE
Resurs 1-4 Rocket 4.1 23:38:03 10° NE 23:40:30 23° NE 23:40:30 23° NE
CZ-2C R/B 4.3 23:54:39 28° ENE 23:54:39 28° ENE 23:58:48 10° N
